KD9BKH Weather Reports


time (UTC)temp
C
wind
direction
speed
KPH
gust
KPH
rain 1hr
cm
rain 24hr
cm
rain mn
cm
humidity
%
barometer
mb
20260905205006 33 173 3.2 9.7 0.00 0.00 0.00 63 1012.2
20260905204506 33 178 4.8 11.3 0.00 0.00 0.00 63 1012.6
20260905204007 33 178 4.8 11.3 0.00 0.00 0.00 63 1012.6
20260905203508 33 178 4.8 11.3 0.00 0.00 0.00 63 1012.6
20260905203006 33 180 3.2 9.7 0.00 0.00 0.00 62 1012.8
20260905202506 33 180 3.2 9.7 0.00 0.00 0.00 62 1012.8
20260905202006 33 180 3.2 9.7 0.00 0.00 0.00 62 1012.8
20260905201507 33 169 4.8 11.3 0.00 0.00 0.00 61 1013.0
20260905201007 33 169 4.8 11.3 0.00 0.00 0.00 61 1013.0
20260905200506 33 169 4.8 11.3 0.00 0.00 0.00 61 1013.0
20260905200007 32 179 3.2 9.7 0.00 0.00 0.00 63 1013.2
20260905195507 32 179 3.2 9.7 0.00 0.00 0.00 63 1013.2
20260905195006 32 179 3.2 9.7 0.00 0.00 0.00 63 1013.2
20260905194507 33 192 3.2 8.0 0.00 0.00 0.00 58 1013.5
20260905194006 33 192 3.2 8.0 0.00 0.00 0.00 58 1013.5
20260905193508 33 192 3.2 8.0 0.00 0.00 0.00 58 1013.5
20260905193007 33 164 3.2 6.4 0.00 0.00 0.00 60 1013.4
20260905192506 33 164 3.2 6.4 0.00 0.00 0.00 60 1013.4
20260905192220 33 164 3.2 6.4 0.00 0.00 0.00 60 1013.4
20260905191723 33 164 3.2 6.4 0.00 0.00 0.00 60 1013.4
20260905191006 33 41 3.2 8.0 0.00 0.00 0.00 61 1013.6
20260905190506 33 41 3.2 8.0 0.00 0.00 0.00 61 1013.6
20260905190222 33 41 3.2 8.0 0.00 0.00 0.00 61 1013.6
20260905185506 32 180 3.2 6.4 0.00 0.00 0.00 58 1013.9
20260905185006 32 180 3.2 6.4 0.00 0.00 0.00 58 1013.9
20260905184506 32 167 3.2 6.4 0.00 0.00 0.00 58 1014.3
20260905184221 32 167 3.2 6.4 0.00 0.00 0.00 58 1014.3
20260905183507 32 167 3.2 6.4 0.00 0.00 0.00 58 1014.3
20260905183007 32 187 3.2 4.8 0.00 0.00 0.00 60 1014.4
20260905182506 32 187 3.2 4.8 0.00 0.00 0.00 60 1014.4
20260905182007 32 187 3.2 4.8 0.00 0.00 0.00 60 1014.4
20260905181006 32 109 3.2 11.3 0.00 0.00 0.00 59 1014.5
20260905180506 32 109 3.2 11.3 0.00 0.00 0.00 59 1014.5
20260905180006 31 73 4.8 12.9 0.00 0.00 0.00 60 1014.7
20260905175506 31 73 4.8 12.9 0.00 0.00 0.00 60 1014.7
20260905175006 31 73 4.8 12.9 0.00 0.00 0.00 60 1014.7
20260905174720 31 73 4.8 12.9 0.00 0.00 0.00 60 1014.7
20260905174007 31 47 3.2 11.3 0.00 0.00 0.00 60 1014.6
20260905173722 31 47 3.2 11.3 0.00 0.00 0.00 60 1014.6
20260905173007 31 9 4.8 9.7 0.00 0.00 0.00 63 1014.9
20260905172506 31 9 4.8 9.7 0.00 0.00 0.00 63 1014.9
20260905172007 31 9 4.8 9.7 0.00 0.00 0.00 63 1014.9
20260905171506 30 27 4.8 11.3 0.00 0.00 0.00 61 1015.1
20260905171007 30 27 4.8 11.3 0.00 0.00 0.00 61 1015.1
20260905170507 30 27 4.8 11.3 0.00 0.00 0.00 61 1015.1
20260905170007 31 115 3.2 11.3 0.00 0.00 0.00 59 1015.2
20260905165508 31 115 3.2 11.3 0.00 0.00 0.00 59 1015.2
20260905165221 31 115 3.2 11.3 0.00 0.00 0.00 59 1015.2
20260905164507 30 122 3.2 9.7 0.00 0.00 0.00 63 1015.2
20260905164006 30 122 3.2 9.7 0.00 0.00 0.00 63 1015.2
20260905163507 30 122 3.2 9.7 0.00 0.00 0.00 63 1015.2
20260905163006 30 358 1.6 6.4 0.00 0.00 0.00 63 1015.0
20260905162507 30 358 1.6 6.4 0.00 0.00 0.00 63 1015.0
20260905162007 30 358 1.6 6.4 0.00 0.00 0.00 63 1015.0
20260905161507 29 10 4.8 11.3 0.00 0.00 0.00 66 1014.9
20260905161006 29 10 4.8 11.3 0.00 0.00 0.00 66 1014.9
20260905160507 29 10 4.8 11.3 0.00 0.00 0.00 66 1014.9
20260905160006 28 29 4.8 16.1 0.00 0.00 0.00 66 1015.1
20260905155506 28 29 4.8 16.1 0.00 0.00 0.00 66 1015.1
20260905155006 28 29 4.8 16.1 0.00 0.00 0.00 66 1015.1
20260905154507 27 51 3.2 9.7 0.00 0.00 0.00 67 1015.2
20260905154006 27 51 3.2 9.7 0.00 0.00 0.00 67 1015.2
20260905153721 27 51 3.2 9.7 0.00 0.00 0.00 67 1015.2
20260905153007 27 7 3.2 9.7 0.00 0.00 0.00 66 1015.3
20260905152721 27 7 3.2 9.7 0.00 0.00 0.00 66 1015.3
20260905152008 27 7 3.2 9.7 0.00 0.00 0.00 66 1015.3
20260905151506 27 13 6.4 17.7 0.00 0.00 0.00 67 1015.6
20260905151006 27 13 6.4 17.7 0.00 0.00 0.00 67 1015.6
20260905150721 27 13 6.4 17.7 0.00 0.00 0.00 67 1015.6
20260905150220 27 13 6.4 17.7 0.00 0.00 0.00 67 1015.6
20260905145507 27 9 4.8 16.1 0.00 0.00 0.00 70 1015.3
20260905145006 27 9 4.8 16.1 0.00 0.00 0.00 70 1015.3
20260905144507 26 356 4.8 14.5 0.00 0.00 0.00 73 1015.3
20260905144006 26 356 4.8 14.5 0.00 0.00 0.00 73 1015.3
20260905143507 26 356 4.8 14.5 0.00 0.00 0.00 73 1015.3
20260905143006 26 352 4.8 9.7 0.00 0.00 0.00 72 1015.3
20260905142507 26 352 4.8 9.7 0.00 0.00 0.00 72 1015.3
20260905142007 26 352 4.8 9.7 0.00 0.00 0.00 72 1015.3
20260905141721 26 352 4.8 9.7 0.00 0.00 0.00 72 1015.3
20260905141007 25 352 4.8 16.1 0.00 0.00 0.00 75 1015.5
20260905140507 25 352 4.8 16.1 0.00 0.00 0.00 75 1015.5
20260905140007 26 5 4.8 12.9 0.00 0.00 0.00 73 1015.4
20260905135507 26 5 4.8 12.9 0.00 0.00 0.00 73 1015.4
20260905135007 26 5 4.8 12.9 0.00 0.00 0.00 73 1015.4
20260905134506 25 353 6.4 16.1 0.00 0.00 0.00 75 1015.4
20260905134007 25 353 6.4 16.1 0.00 0.00 0.00 75 1015.4
20260905133506 25 353 6.4 16.1 0.00 0.00 0.00 75 1015.4
20260905133007 26 356 6.4 12.9 0.00 0.00 0.00 78 1015.4
20260905132506 26 356 6.4 12.9 0.00 0.00 0.00 78 1015.4
20260905132007 26 356 6.4 12.9 0.00 0.00 0.00 78 1015.4
20260905131506 25 355 6.4 16.1 0.00 0.00 0.00 83 1015.5
20260905131007 25 355 6.4 16.1 0.00 0.00 0.00 83 1015.5
20260905130506 25 355 6.4 16.1 0.00 0.00 0.00 83 1015.5
20260905130006 25 357 4.8 9.7 0.00 0.00 0.00 87 1015.4
20260905125507 25 357 4.8 9.7 0.00 0.00 0.00 87 1015.4
20260905125221 25 357 4.8 9.7 0.00 0.00 0.00 87 1015.4
20260905124506 24 360 3.2 8.0 0.00 0.00 0.00 90 1015.2
20260905124006 24 360 3.2 8.0 0.00 0.00 0.00 90 1015.2
20260905123507 24 360 3.2 8.0 0.00 0.00 0.00 90 1015.2
20260905123006 23 0 0.0 0.0 0.00 0.00 0.00 95 1014.9
20260905122506 23 0 0.0 0.0 0.00 0.00 0.00 95 1014.9
20260905122008 23 0 0.0 0.0 0.00 0.00 0.00 95 1014.9
20260905121507 23 0 0.0 0.0 0.00 0.00 0.00 95 1014.5
20260905121006 23 0 0.0 0.0 0.00 0.00 0.00 95 1014.5
20260905120507 23 0 0.0 0.0 0.00 0.00 0.00 95 1014.5
20260905120006 22 0 0.0 0.0 0.00 0.00 0.00 95 1014.4
20260905115506 22 0 0.0 0.0 0.00 0.00 0.00 95 1014.4
20260905115221 22 0 0.0 0.0 0.00 0.00 0.00 95 1014.4
20260905114720 22 0 0.0 0.0 0.00 0.00 0.00 95 1014.4
20260905114008 22 0 0.0 0.0 0.00 0.00 0.00 95 1014.4
20260905113506 22 0 0.0 0.0 0.00 0.00 0.00 95 1014.4
20260905113014 23 0 0.0 0.0 0.00 0.00 0.00 95 1014.2
20260905112507 23 0 0.0 0.0 0.00 0.00 0.00 95 1014.2
20260905112006 23 0 0.0 0.0 0.00 0.00 0.00 95 1014.2
20260905111506 23 0 0.0 0.0 0.00 0.00 0.00 95 1014.2
20260905111006 23 0 0.0 0.0 0.00 0.00 0.00 95 1014.2
20260905110508 23 0 0.0 0.0 0.00 0.00 0.00 95 1014.2
20260905110006 23 136 0.0 1.6 0.00 0.00 0.00 96 1014.2
20260905105722 23 136 0.0 1.6 0.00 0.00 0.00 96 1014.2
20260905105006 23 136 0.0 1.6 0.00 0.00 0.00 96 1014.2
20260905104507 23 0 0.0 0.0 0.00 0.00 0.00 96 1014.3
20260905104220 23 0 0.0 0.0 0.00 0.00 0.00 96 1014.3
20260905103506 23 0 0.0 0.0 0.00 0.00 0.00 96 1014.3
20260905103008 23 0 0.0 0.0 0.00 0.00 0.00 96 1014.1
20260905102506 23 0 0.0 0.0 0.00 0.00 0.00 96 1014.1
20260905102007 23 0 0.0 0.0 0.00 0.00 0.00 96 1014.1
20260905101719 23 0 0.0 0.0 0.00 0.00 0.00 96 1014.1
20260905101007 23 0 0.0 0.0 0.00 0.00 0.00 96 1014.2
20260905100507 23 0 0.0 0.0 0.00 0.00 0.00 96 1014.2
20260905100006 23 0 0.0 0.0 0.00 0.00 0.00 96 1014.3
20260905095506 23 0 0.0 0.0 0.00 0.00 0.00 96 1014.3
20260905095007 23 0 0.0 0.0 0.00 0.00 0.00 96 1014.3
20260905094508 23 0 0.0 0.0 0.00 0.00 0.00 96 1014.3
20260905094006 23 0 0.0 0.0 0.00 0.00 0.00 96 1014.3
20260905093719 23 0 0.0 0.0 0.00 0.00 0.00 96 1014.3
20260905093007 23 0 0.0 0.0 0.00 0.00 0.00 96 1014.2
20260905092507 23 0 0.0 0.0 0.00 0.00 0.00 96 1014.2
20260905092220 23 0 0.0 0.0 0.00 0.00 0.00 96 1014.2
20260905091506 22 0 0.0 0.0 0.00 0.00 0.00 96 1014.0
20260905091008 22 0 0.0 0.0 0.00 0.00 0.00 96 1014.0
20260905090506 22 0 0.0 0.0 0.00 0.00 0.00 96 1014.0
20260905090007 22 0 0.0 0.0 0.00 0.00 0.00 96 1014.0
20260905085507 22 0 0.0 0.0 0.00 0.00 0.00 96 1014.0
20260905085007 22 0 0.0 0.0 0.00 0.00 0.00 96 1014.0
20260905084506 23 0 0.0 0.0 0.00 0.00 0.00 96 1013.8
20260905084007 23 0 0.0 0.0 0.00 0.00 0.00 96 1013.8
20260905083721 23 0 0.0 0.0 0.00 0.00 0.00 96 1013.8
20260905083007 23 0 0.0 0.0 0.00 0.00 0.00 96 1013.6
20260905082507 23 0 0.0 0.0 0.00 0.00 0.00 96 1013.6
20260905082007 23 0 0.0 0.0 0.00 0.00 0.00 96 1013.6
20260905081506 23 0 0.0 0.0 0.00 0.00 0.00 95 1013.5
20260905081006 23 0 0.0 0.0 0.00 0.00 0.00 95 1013.5
20260905080507 23 0 0.0 0.0 0.00 0.00 0.00 95 1013.5
20260905080008 23 0 0.0 0.0 0.00 0.00 0.00 96 1013.5
20260905075720 23 0 0.0 0.0 0.00 0.00 0.00 96 1013.5
20260905075006 23 0 0.0 0.0 0.00 0.00 0.00 96 1013.5
20260905074506 23 0 0.0 0.0 0.00 0.00 0.00 95 1013.4
20260905074008 23 0 0.0 0.0 0.00 0.00 0.00 95 1013.4
20260905073507 23 0 0.0 0.0 0.00 0.00 0.00 95 1013.4
20260905073006 23 0 0.0 0.0 0.00 0.00 0.00 96 1013.5
20260905072506 23 0 0.0 0.0 0.00 0.00 0.00 96 1013.5
20260905072007 23 0 0.0 0.0 0.00 0.00 0.00 96 1013.5
20260905071507 23 0 0.0 0.0 0.00 0.00 0.00 95 1013.8
20260905071006 23 0 0.0 0.0 0.00 0.00 0.00 95 1013.8
20260905070720 23 0 0.0 0.0 0.00 0.00 0.00 95 1013.8
20260905070007 23 0 0.0 0.0 0.00 0.00 0.00 95 1013.9
20260905065507 23 0 0.0 0.0 0.00 0.00 0.00 95 1013.9
20260905065006 23 0 0.0 0.0 0.00 0.00 0.00 95 1013.9
20260905064506 23 0 0.0 0.0 0.00 0.00 0.00 95 1014.2
20260905064006 23 0 0.0 0.0 0.00 0.00 0.00 95 1014.2
20260905063507 23 0 0.0 0.0 0.00 0.00 0.00 95 1014.2
20260905063006 23 0 0.0 0.0 0.00 0.00 0.00 95 1014.3
20260905062507 23 0 0.0 0.0 0.00 0.00 0.00 95 1014.3
20260905062006 23 0 0.0 0.0 0.00 0.00 0.00 95 1014.3
20260905061508 23 0 0.0 0.0 0.00 0.00 0.00 95 1014.3
20260905061007 23 0 0.0 0.0 0.00 0.00 0.00 95 1014.3
20260905060507 23 0 0.0 0.0 0.00 0.00 0.00 95 1014.3
20260905060221 23 0 0.0 0.0 0.00 0.00 0.00 95 1014.3
20260905055507 23 0 0.0 0.0 0.00 0.00 0.00 95 1014.4
20260905055007 23 0 0.0 0.0 0.00 0.00 0.00 95 1014.4
20260905054506 23 0 0.0 0.0 0.00 0.00 0.00 95 1014.5
20260905054221 23 0 0.0 0.0 0.00 0.00 0.00 95 1014.5
20260905053508 23 0 0.0 0.0 0.00 0.00 0.00 95 1014.5
20260905053006 24 0 0.0 0.0 0.00 0.00 0.00 95 1014.6
20260905052721 24 0 0.0 0.0 0.00 0.00 0.00 95 1014.6
20260905052006 24 0 0.0 0.0 0.00 0.00 0.00 95 1014.6
20260905051507 24 0 0.0 0.0 0.00 0.00 0.00 95 1014.5
20260905051007 24 0 0.0 0.0 0.00 0.00 0.00 95 1014.5
20260905050507 24 0 0.0 0.0 0.00 0.00 0.00 95 1014.5
20260905050006 24 0 0.0 0.0 0.00 0.00 0.00 94 1014.6
20260905045507 24 0 0.0 0.0 0.00 0.00 0.00 94 1014.6
20260905045007 24 0 0.0 0.0 0.00 0.00 0.00 94 1014.6
20260905044507 24 0 0.0 0.0 0.00 0.00 0.00 95 1014.6
20260905044006 24 0 0.0 0.0 0.00 0.00 0.00 95 1014.6
20260905043721 24 0 0.0 0.0 0.00 0.00 0.00 95 1014.6
20260905043006 24 0 0.0 0.0 0.00 0.00 0.00 94 1014.5
20260905042506 24 0 0.0 0.0 0.00 0.00 0.00 94 1014.5
20260905042007 24 0 0.0 0.0 0.00 0.00 0.00 94 1014.5
20260905041507 25 0 0.0 0.0 0.00 0.00 0.00 94 1014.8
20260905041006 25 0 0.0 0.0 0.00 0.00 0.00 94 1014.8
20260905040721 25 0 0.0 0.0 0.00 0.00 0.00 94 1014.8
20260905040007 25 0 0.0 0.0 0.00 0.00 0.00 94 1015.0
20260905035507 25 0 0.0 0.0 0.00 0.00 0.00 94 1015.0
20260905035007 25 0 0.0 0.0 0.00 0.00 0.00 94 1015.0
20260905034721 25 0 0.0 0.0 0.00 0.00 0.00 94 1015.0
20260905034006 25 0 0.0 0.0 0.00 0.00 0.00 94 1015.0
20260905033506 25 0 0.0 0.0 0.00 0.00 0.00 94 1015.0
20260905033007 25 0 0.0 0.0 0.00 0.00 0.00 93 1014.9
20260905032721 25 0 0.0 0.0 0.00 0.00 0.00 93 1014.9
20260905032006 25 0 0.0 0.0 0.00 0.00 0.00 93 1014.9
20260905031506 25 0 0.0 0.0 0.00 0.00 0.00 93 1014.8
20260905031006 25 0 0.0 0.0 0.00 0.00 0.00 93 1014.8
20260905030506 25 0 0.0 0.0 0.00 0.00 0.00 93 1014.8
20260905030007 25 139 0.0 1.6 0.00 0.00 0.00 92 1014.6
20260905025506 25 139 0.0 1.6 0.00 0.00 0.00 92 1014.6
20260905025006 25 139 0.0 1.6 0.00 0.00 0.00 92 1014.6
20260905024506 26 0 0.0 0.0 0.00 0.00 0.00 92 1014.5
20260905024007 26 0 0.0 0.0 0.00 0.00 0.00 92 1014.5
20260905023506 26 0 0.0 0.0 0.00 0.00 0.00 92 1014.5
20260905023006 26 0 0.0 0.0 0.00 0.00 0.00 91 1014.5
20260905022506 26 0 0.0 0.0 0.00 0.00 0.00 91 1014.5
20260905022221 26 0 0.0 0.0 0.00 0.00 0.00 91 1014.5
20260905021507 26 0 0.0 0.0 0.00 0.00 0.00 90 1014.6
20260905021006 26 0 0.0 0.0 0.00 0.00 0.00 90 1014.6
20260905020506 26 0 0.0 0.0 0.00 0.00 0.00 90 1014.6
20260905020221 26 0 0.0 0.0 0.00 0.00 0.00 90 1014.6
20260905015506 26 0 0.0 0.0 0.00 0.00 0.00 90 1014.5
20260905015219 26 0 0.0 0.0 0.00 0.00 0.00 90 1014.5
20260905014507 26 0 0.0 0.0 0.00 0.00 0.00 89 1014.5
20260905014007 26 0 0.0 0.0 0.00 0.00 0.00 89 1014.5
20260905013507 26 0 0.0 0.0 0.00 0.00 0.00 89 1014.5
20260905013007 27 0 0.0 0.0 0.00 0.00 0.00 87 1014.4
20260905012506 27 0 0.0 0.0 0.00 0.00 0.00 87 1014.4
20260905012006 27 0 0.0 0.0 0.00 0.00 0.00 87 1014.4
20260905011722 27 0 0.0 0.0 0.00 0.00 0.00 87 1014.4
20260905011006 27 0 0.0 0.0 0.00 0.00 0.00 86 1014.4
20260905010720 27 0 0.0 0.0 0.00 0.00 0.00 86 1014.4
20260905010008 27 0 0.0 0.0 0.00 0.00 0.00 83 1014.2
20260905005506 27 0 0.0 0.0 0.00 0.00 0.00 83 1014.2
20260905005006 27 0 0.0 0.0 0.00 0.00 0.00 83 1014.2
20260905004507 28 0 0.0 0.0 0.00 0.00 0.00 81 1014.1
20260905004007 28 0 0.0 0.0 0.00 0.00 0.00 81 1014.1
20260905003507 28 0 0.0 0.0 0.00 0.00 0.00 81 1014.1
20260905003007 29 0 0.0 0.0 0.00 0.00 0.00 78 1014.0
20260905002507 29 0 0.0 0.0 0.00 0.00 0.00 78 1014.0
20260905002007 29 0 0.0 0.0 0.00 0.00 0.00 78 1014.0
20260905001719 29 0 0.0 0.0 0.00 0.00 0.00 78 1014.0
20260905001007 30 0 0.0 0.0 0.00 0.00 0.00 75 1014.1
20260905000506 30 0 0.0 0.0 0.00 0.00 0.00 75 1014.1
20260905000007 31 0 0.0 0.0 0.00 0.00 0.00 73 1014.1
20260904235507 31 0 0.0 0.0 0.00 0.00 0.00 73 1014.1
20260904235007 31 0 0.0 0.0 0.00 0.00 0.00 73 1014.1
20260904234506 32 0 0.0 0.0 0.00 0.00 0.00 69 1014.2
20260904234006 32 0 0.0 0.0 0.00 0.00 0.00 69 1014.2
20260904233507 32 0 0.0 0.0 0.00 0.00 0.00 69 1014.2
20260904233007 32 139 0.0 1.6 0.00 0.00 0.00 66 1014.1
20260904232507 32 139 0.0 1.6 0.00 0.00 0.00 66 1014.1
20260904232006 32 139 0.0 1.6 0.00 0.00 0.00 66 1014.1
20260904231506 33 139 0.0 3.2 0.00 0.00 0.00 61 1013.9
20260904231007 33 139 0.0 3.2 0.00 0.00 0.00 61 1013.9
20260904230507 33 139 0.0 3.2 0.00 0.00 0.00 61 1013.9
20260904230220 33 139 0.0 3.2 0.00 0.00 0.00 61 1013.9
20260904225507 34 170 1.6 4.8 0.00 0.00 0.00 56 1013.8
20260904225006 34 170 1.6 4.8 0.00 0.00 0.00 56 1013.8
20260904224721 34 170 1.6 4.8 0.00 0.00 0.00 56 1013.8
20260904224007 35 113 1.6 3.2 0.00 0.00 0.00 54 1013.9
20260904223506 35 113 1.6 3.2 0.00 0.00 0.00 54 1013.9
20260904223007 35 73 1.6 6.4 0.00 0.00 0.00 53 1013.8
20260904222506 35 73 1.6 6.4 0.00 0.00 0.00 53 1013.8
20260904222006 35 73 1.6 6.4 0.00 0.00 0.00 53 1013.8
20260904221508 35 182 3.2 8.0 0.00 0.00 0.00 53 1013.9
20260904221007 35 182 3.2 8.0 0.00 0.00 0.00 53 1013.9
20260904220506 35 182 3.2 8.0 0.00 0.00 0.00 53 1013.9
20260904220006 35 139 3.2 6.4 0.00 0.00 0.00 53 1014.0
20260904215506 35 139 3.2 6.4 0.00 0.00 0.00 53 1014.0
20260904215007 35 139 3.2 6.4 0.00 0.00 0.00 53 1014.0
20260904214507 35 144 3.2 6.4 0.00 0.00 0.00 51 1014.0
20260904214007 35 144 3.2 6.4 0.00 0.00 0.00 51 1014.0
20260904213506 35 144 3.2 6.4 0.00 0.00 0.00 51 1014.0
20260904213006 35 174 3.2 9.7 0.00 0.00 0.00 50 1014.1
20260904212506 35 174 3.2 9.7 0.00 0.00 0.00 50 1014.1
20260904212008 35 174 3.2 9.7 0.00 0.00 0.00 50 1014.1
20260904211507 35 166 3.2 9.7 0.00 0.00 0.00 51 1014.2
20260904211006 35 166 3.2 9.7 0.00 0.00 0.00 51 1014.2
20260904210507 35 166 3.2 9.7 0.00 0.00 0.00 51 1014.2
20260904210007 35 157 3.2 6.4 0.00 0.00 0.00 48 1014.3
20260904205506 35 157 3.2 6.4 0.00 0.00 0.00 48 1014.3